Date String (YYYY-MM-DD hh:mm:ss) UTC,Instrument flags,absolute air pressure of the measurement (hPa),sample flow rate (lpm),inlet stack bypass flow (lpm),air temperature of the measurement (°C),ambient temperature measured by the external sensor (°C),aerosol sample conditioner tube jacket temperature (°C),OPC LED temperature (°C),internal box temperature (°C),relative humidity of the measurement (%),span deviation,mass concentration of particles derived from Lorenz-Mie calculation of OPC scattering (μg/m³),mass concentration of particles derived from Lorenz-Mie calculation of OPC scattering (μg/m³),mass concentration of particles derived from Lorenz-Mie calculation of OPC scattering (μg/m³)
DateTimeUTC,F1_M11,P_M11,Q1_M11,Q2_M11,T1_M11,T2_M11,T3_M11,T4_M11,T5_M11,U1_M11,ZSPAN_M11,X0_M11,X2_M11,X1_M11
2024-03-22 20:00:00,SystemResetWarning,0828.7,5.01,000.00,022.5,022.0,000.0,030.8,024.3,15.7,0000.0,0015.23,0004.99,0003.85
2024-03-22 20:01:00,SystemResetWarning,0828.8,5.00,000.00,022.5,022.0,000.0,030.8,024.3,15.8,0000.0,0014.62,0004.99,0003.85
2024-03-22 20:02:00,SystemResetWarning,0828.7,5.00,000.00,022.5,022.0,000.0,030.8,024.3,15.9,0000.0,0014.57,0005.03,0003.84
2024-03-22 20:03:00,SystemResetWarning,0828.7,4.99,000.00,022.6,022.0,000.0,030.8,024.4,16.0,0000.0,0014.31,0005.01,0003.83
2024-03-22 20:04:00,SystemResetWarning,0828.7,4.99,000.00,022.6,022.0,000.0,030.8,024.4,16.4,0000.0,0014.31,0004.96,0003.81
2024-03-22 20:05:00,SystemResetWarning,0828.7,5.00,000.00,022.6,022.0,000.0,030.9,024.4,16.4,0000.0,0014.86,0004.92,0003.80
2024-03-22 20:06:00,SystemResetWarning,0828.7,5.01,000.00,022.6,022.0,000.0,030.9,024.4,16.3,0000.0,0014.68,0004.86,0003.78
2024-03-22 20:07:00,SystemResetWarning,0828.6,5.00,000.00,022.6,022.0,000.0,030.9,024.4,16.7,0000.0,0014.62,0004.84,0003.76
2024-03-22 20:08:00,SystemResetWarning,0828.7,5.00,000.00,022.6,022.0,000.0,030.9,024.4,16.6,0000.0,0015.73,0004.82,0003.74
2024-03-22 20:09:00,SystemResetWarning,0828.6,5.01,000.00,022.6,022.0,000.0,030.9,024.4,16.1,0000.0,0016.38,0004.87,0003.75
2024-03-22 20:10:00,SystemResetWarning,0828.6,5.00,000.00,022.6,022.1,000.0,030.9,024.4,16.4,0000.0,0016.21,0004.86,0003.75
2024-03-22 20:11:00,SystemResetWarning,0828.6,5.00,000.00,022.7,022.0,000.0,030.9,024.4,15.8,0000.0,0014.93,0004.85,0003.76
2024-03-22 20:12:00,SystemResetWarning,0828.6,5.00,000.00,022.7,022.0,000.0,031.0,024.5,16.2,0000.0,0016.51,0004.85,0003.77
2024-03-22 20:13:00,SystemResetWarning,0828.6,5.00,000.00,022.7,022.1,000.0,031.0,024.5,15.9,0000.0,0017.77,0004.85,0003.79
2024-03-22 20:14:00,SystemResetWarning,0828.6,4.99,000.00,022.7,022.1,000.0,031.0,024.5,16.0,0000.0,0018.30,0004.88,0003.81
2024-03-22 20:15:00,SystemResetWarning,0828.6,5.00,000.00,022.7,022.1,000.0,031.0,024.5,16.1,0000.0,0018.41,0004.89,0003.83
2024-03-22 20:16:00,SystemResetWarning,0828.6,4.99,000.00,022.7,022.1,000.0,031.0,024.5,16.3,0000.0,0017.66,0004.91,0003.83
2024-03-22 20:17:00,SystemResetWarning,0828.6,4.99,000.00,022.7,022.1,000.0,031.0,024.5,15.9,0000.0,0017.34,0004.95,0003.84
2024-03-22 20:18:00,SystemResetWarning,0828.5,5.00,000.00,022.7,022.1,000.0,031.0,024.5,15.5,0000.0,0017.13,0004.98,0003.86
2024-03-22 20:19:00,SystemResetWarning,0828.5,5.01,000.00,022.7,022.2,000.0,031.0,024.5,15.6,0000.0,0016.59,0004.96,0003.89
2024-03-22 20:20:00,SystemResetWarning,0828.5,5.00,000.00,022.8,022.2,000.0,031.1,024.6,16.0,0000.0,0015.45,0004.92,0003.88
2024-03-22 20:21:00,SystemResetWarning,0828.5,4.99,000.00,022.8,022.2,000.0,031.1,024.6,15.8,0000.0,0015.88,0004.96,0003.89
2024-03-22 20:22:00,SystemResetWarning,0828.4,4.99,000.00,022.8,022.2,000.0,031.1,024.6,15.7,0000.0,0016.16,0004.98,0003.88
2024-03-22 20:23:00,SystemResetWarning,0828.4,5.01,000.00,022.8,022.2,000.0,031.1,024.6,15.7,0000.0,0016.13,0005.01,0003.89
2024-03-22 20:24:00,SystemResetWarning,0828.4,5.00,000.00,022.8,022.2,000.0,031.1,024.6,15.8,0000.0,0014.69,0005.03,0003.87
2024-03-22 20:25:00,SystemResetWarning,0828.4,5.00,000.00,022.8,022.3,000.0,031.1,024.6,16.2,0000.0,0014.60,0004.99,0003.84
2024-03-22 20:26:00,SystemResetWarning,0828.4,5.00,000.00,022.8,022.3,000.0,031.1,024.6,16.2,0000.0,0015.31,0004.98,0003.82
2024-03-22 20:27:00,SystemResetWarning,0828.4,5.00,000.00,022.9,022.3,000.0,031.2,024.7,15.7,0000.0,0015.37,0004.96,0003.82
2024-03-22 20:28:00,SystemResetWarning,0828.3,4.99,000.00,022.9,022.3,000.0,031.2,024.7,15.9,0000.0,0015.97,0004.96,0003.82
2024-03-22 20:29:00,SystemResetWarning,0828.4,5.00,000.00,022.9,022.3,000.0,031.2,024.7,16.5,0000.0,0016.00,0004.94,0003.82
2024-03-22 20:30:00,SystemResetWarning,0828.4,5.00,000.00,022.9,022.3,000.0,031.2,024.7,16.1,0000.0,0016.14,0004.96,0003.80
2024-03-22 20:31:00,SystemResetWarning,0828.3,5.00,000.00,022.9,022.3,000.0,031.2,024.7,15.6,0000.0,0016.01,0004.94,0003.80
2024-03-22 20:32:00,SystemResetWarning,0828.3,5.00,000.00,022.9,022.3,000.0,031.2,024.7,15.4,0000.0,0016.18,0004.92,0003.82
2024-03-22 20:33:00,SystemResetWarning,0828.2,5.00,000.00,022.9,022.4,000.0,031.2,024.7,15.8,0000.0,0016.94,0004.96,0003.83
2024-03-22 20:34:00,SystemResetWarning,0828.2,5.00,000.00,022.9,022.4,000.0,031.2,024.8,15.9,0000.0,0015.57,0005.00,0003.84
2024-03-22 20:35:00,SystemResetWarning,0828.2,5.00,000.00,022.9,022.4,000.0,031.3,024.8,15.6,0000.0,0015.55,0004.99,0003.87
2024-03-22 20:36:00,SystemResetWarning,0828.2,5.00,000.00,023.0,022.4,000.0,031.3,024.8,15.7,0000.0,0015.13,0005.04,0003.90
2024-03-22 20:37:00,SystemResetWarning,0828.1,5.00,000.00,023.0,022.4,000.0,031.3,024.8,16.1,0000.0,0014.64,0005.05,0003.92
2024-03-22 20:38:00,SystemResetWarning,0828.1,5.00,000.00,023.0,022.4,000.0,031.3,024.8,15.4,0000.0,0015.44,0005.11,0003.92
2024-03-22 20:39:00,SystemResetWarning,0828.1,5.00,000.00,023.0,022.4,000.0,031.3,024.8,15.5,0000.0,0016.70,0005.09,0003.92
2024-03-22 20:40:00,SystemResetWarning,0828.1,5.00,000.00,023.0,022.4,000.0,031.3,024.8,15.5,0000.0,0017.35,0005.11,0003.92
2024-03-22 20:41:00,SystemResetWarning,0828.1,5.01,000.00,023.0,022.5,000.0,031.3,024.9,15.2,0000.0,0016.76,0005.08,0003.91
2024-03-22 20:42:00,SystemResetWarning,0828.0,5.00,000.00,023.1,022.5,000.0,031.3,024.9,15.1,0000.0,0017.08,0005.03,0003.87
2024-03-22 20:43:00,SystemResetWarning,0828.1,5.00,000.00,023.1,022.5,000.0,031.4,024.9,15.0,0000.0,0017.14,0004.92,0003.82
2024-03-22 20:44:00,SystemResetWarning,0828.1,5.00,000.00,023.1,022.5,000.0,031.4,024.9,14.9,0000.0,0016.07,0004.86,0003.79
2024-03-22 20:45:00,SystemResetWarning,0828.1,5.00,000.00,023.1,022.5,000.0,031.4,024.9,15.0,0000.0,0016.01,0004.81,0003.77
2024-03-22 20:46:00,SystemResetWarning,0828.1,5.00,000.00,023.1,022.5,000.0,031.4,024.9,15.0,0000.0,0016.96,0004.80,0003.74
2024-03-22 20:47:00,SystemResetWarning,0828.0,5.01,000.00,023.1,022.5,000.0,031.4,024.9,15.0,0000.0,0017.33,0004.76,0003.71
2024-03-22 20:48:00,SystemResetWarning,0827.9,5.00,000.00,023.1,022.6,000.0,031.4,024.9,15.2,0000.0,0017.52,0004.73,0003.69
2024-03-22 20:49:00,SystemResetWarning,0827.9,5.01,000.00,023.1,022.6,000.0,031.4,024.9,15.5,0000.0,0018.51,0004.66,0003.69
2024-03-22 20:50:00,SystemResetWarning,0827.9,4.99,000.00,023.2,022.6,000.0,031.5,025.0,15.5,0000.0,0017.55,0004.69,0003.68
2024-03-22 20:51:00,SystemResetWarning,0827.8,5.00,000.00,023.2,022.6,000.0,031.5,025.0,15.2,0000.0,0018.08,0004.70,0003.65
2024-03-22 20:52:00,SystemResetWarning,0827.8,4.99,000.00,023.2,022.6,000.0,031.5,025.0,14.6,0000.0,0018.82,0004.70,0003.64
2024-03-22 20:53:00,SystemResetWarning,0828.0,5.01,000.00,023.2,022.6,000.0,031.5,025.0,14.6,0000.0,0019.51,0004.74,0003.63
2024-03-22 20:54:00,SystemResetWarning,0827.8,5.01,000.00,023.2,022.6,000.0,031.5,025.0,14.6,0000.0,0021.10,0004.82,0003.63
2024-03-22 20:55:00,SystemResetWarning,0827.8,5.00,000.00,023.2,022.6,000.0,031.5,025.0,14.3,0000.0,0020.77,0004.80,0003.60
2024-03-22 20:56:00,SystemResetWarning,0827.8,4.99,000.00,023.2,022.6,000.0,031.5,025.0,14.1,0000.0,0020.68,0004.82,0003.58
2024-03-22 20:57:00,SystemResetWarning,0827.8,4.99,000.00,023.3,022.7,000.0,031.6,025.0,14.1,0000.0,0019.85,0004.79,0003.56
2024-03-22 20:58:00,SystemResetWarning,0827.8,4.99,000.00,023.3,022.7,000.0,031.6,025.0,14.2,0000.0,0019.29,0004.79,0003.53
2024-03-22 20:59:00,SystemResetWarning,0827.8,5.00,000.00,023.3,022.7,000.0,031.6,025.0,14.8,0000.0,0019.00,0004.76,0003.49
